Cloud_Cover
100 100 100 100 100 44 68 100 76 100 73 5 39 5 5 5 5 60 7 5 5 0 0 0 0 0 0 0 0 0 0 0 0 0 0 0 0 41 91 100 100 100 90 43
100 100 100 62 90 94 83 44 99 24 16 33 5 25 5 5 82 100 22 10 5 0 0 0 0 0 0 0 0 0 0 0 0 0 0 0 0 0 11 90 94 100 100 99
100 100 99 33 82 96 51 49 98 26 79 14 17 47 7 64 100 100 54 5 5 5 5 0 0 0 0 0 0 0 0 0 0 0 0 1 5 23 12 26 100 100 100 100
100 100 100 100 74 74 76 57 40 5 5 5 7 78 100 100 100 100 98 6 6 5 3 4 0 0 0 0 0 0 0 0 0 0 0 0 0 20 4 16 1 100 100 100
100 100 100 100 100 92 47 17 49 50 58 5 6 5 100 100 100 100 100 54 39 6 3 3 0 0 0 0 0 0 0 0 0 0 0 0 0 0 0 0 2 28 90 100
100 100 100 100 100 100 100 100 100 96 19 11 100 52 100 100 100 100 100 100 100 65 5 1 1 0 0 0 0 0 0 0 0 0 0 0 0 0 4 0 7 36 80 100
100 100 100 100 100 100 100 100 100 100 61 6 28 50 44 100 100 100 100 100 100 67 5 3 3 4 0 0 0 0 0 0 0 0 0 0 0 0 0 5 5 18 30 81
100 100 100 100 100 100 100 67 15 68 67 99 90 84 100 100 100 100 100 100 14 5 6 5 5 5 0 0 0 0 0 0 0 0 0 0 0 0 0 0 5 53 40 5
100 100 100 100 100 100 100 100 100 98 77 100 97 100 100 100 100 100 100 100 100 57 6 5 5 5 4 0 0 0 0 0 0 0 0 0 0 0 0 5 80 100 71 8
100 100 100 100 100 100 100 100 100 100 100 100 100 100 100 100 100 100 98 87 100 100 100 100 91 72 74 46 11 5 5 4 2 1 0 0 0 3 5 5 11 80 57 24
100 100 100 100 100 100 100 100 100 100 69 35 47 100 100 100 100 100 100 100 100 78 100 100 100 100 75 100 100 100 100 90 67 72 33 8 5 5 5 5 10 5 21 5
100 100 100 100 100 100 100 100 100 100 100 100 22 37 100 100 100 100 100 100 100 94 34 6 20 94 100 100 100 100 100 100 96 70 100 100 100 75 54 82 22 5 5 6
100 100 100 100 100 95 91 94 100 91 96 16 50 89 100 100 92 93 100 97 63 26 10 5 10 7 5 5 5 5 15 75 78 55 52 73 89 96 77 88 97 65 59 26
100 97 100 100 100 100 100 100 100 100 95 80 82 100 100 100 100 100 99 52 88 66 5 5 3 0 5 3 5 5 5 5 5 15 47 88 74 86 83 93 100 100 100 100
100 98 99 99 96 93 99 100 100 100 100 62 58 28 100 100 99 93 100 100 70 9 5 5 5 5 5 5 5 5 5 5 5 23 55 79 87 90 94 71 70 65 73 96
100 100 100 100 100 84 23 46 82 44 64 57 69 12 100 100 99 98 53 9 5 5 5 5 5 5 5 5 5 5 5 5 5 5 5 5 5 7 6 21 11 63 49 24
100 95 100 100 100 100 42 5 22 76 100 98 73 8 73 100 96 98 100 100 78 31 5 4 0 0 0 3 4 4 4 1 0 0 1 1 2 4 21 4 5 5 47 86
100 100 100 100 100 89 5 5 52 100 100 100 56 5 14 28 12 5 6 27 60 12 10 5 1 2 4 0 0 1 1 2 2 3 1 0 0 0 0 0 4 40 84 63
100 100 100 100 100 33 5 5 82 93 70 51 5 20 3 2 5 5 5 3 5 5 5 5 0 0 2 2 4 5 5 5 5 5 5 5 5 4 4 11 8 15 45 74
100 100 87 86 28 5 99 87 100 100 25 99 70 9 5 4 1 32 5 5 5 5 5 5 5 8 5 5 5 42 32 36 9 78 100 94 63 21 46 35 40 88 65 60
100 100 100 100 99 7 5 5 12 64 6 7 8 22 27 50 23 2 2 0 4 62 62 18 4 2 5 5 5 5 5 5 32 100 63 89 100 57 46 55 100 100 100 100
100 100 100 100 100 50 23 40 42 14 5 5 5 28 5 4 4 2 2 4 3 0 0 4 5 5 5 5 5 5 17 20 56 85 100 100 100 98 100 100 100 100 100 100
100 100 100 100 96 10 5 52 96 76 41 46 15 23 80 44 44 33 96 99 96 99 44 5 5 5 5 5 6 10 9 100 100 100 97 100 100 62 38 98 100 100 100 100
100 100 100 100 100 100 100 100 100 100 100 99 100 100 97 74 87 36 65 4 0 4 3 5 5 5 5 5 7 6 26 95 100 96 100 100 100 100 100 63 98 100 100 100
100 100 100 100 100 100 100 100 100 100 100 100 100 86 87 80 92 48 5 5 3 5 5 5 5 5 5 5 5 42 5 72 100 99 82 100 100 100 95 76 98 20 62 90
100 100 100 99 100 100 100 100 100 100 88 79 88 71 36 4 2 1 0 1 5 5 5 12 10 9 5 5 5 5 5 88 100 100 100 100 100 100 100 100 96 90 100 90